TimeEDT,TemperatureF,Dew PointF,Humidity,Sea Level PressureIn,VisibilityMPH,Wind Direction,Wind SpeedMPH,Gust SpeedMPH,PrecipitationIn,Events,Conditions,WindDirDegrees,DateUTC
12:54 AM,71.1,64.0,78,30.12,10.0,South,8.1,-,N/A,,Clear,180,2013-07-04 04:54:00
1:54 AM,70.0,64.0,81,30.12,10.0,South,6.9,-,N/A,,Clear,180,2013-07-04 05:54:00
2:54 AM,69.1,64.0,84,30.12,10.0,SSE,6.9,-,N/A,,Partly Cloudy,160,2013-07-04 06:54:00
3:54 AM,69.1,64.0,84,30.13,10.0,SSE,8.1,-,N/A,,Clear,160,2013-07-04 07:54:00
4:54 AM,69.1,64.0,84,30.12,10.0,SE,5.8,-,N/A,,Overcast,140,2013-07-04 08:54:00
5:54 AM,69.1,64.0,84,30.13,10.0,SSE,5.8,-,N/A,,Overcast,150,2013-07-04 09:54:00
6:54 AM,68.0,64.0,87,30.14,10.0,SE,4.6,-,0.03,,Overcast,140,2013-07-04 10:54:00
7:54 AM,69.1,66.0,90,30.14,10.0,SE,4.6,-,0.02,Rain,Light Rain,130,2013-07-04 11:54:00
8:54 AM,69.1,66.0,90,30.15,10.0,SE,5.8,-,0.00,Rain,Light Rain,130,2013-07-04 12:54:00
9:14 AM,69.1,66.0,90,30.17,10.0,SE,8.1,-,0.00,Rain,Light Rain,130,2013-07-04 13:14:00
9:54 AM,69.1,66.0,90,30.15,10.0,SE,6.9,-,0.00,,Overcast,140,2013-07-04 13:54:00
10:09 AM,69.1,66.9,93,30.18,3.0,SSE,6.9,-,0.00,Rain,Light Rain,150,2013-07-04 14:09:00
10:12 AM,69.1,66.9,93,30.18,1.5,SSE,9.2,-,0.00,Rain,Rain,150,2013-07-04 14:12:00
10:35 AM,69.1,66.9,93,30.17,2.0,SE,4.6,-,0.24,Rain,Heavy Rain,140,2013-07-04 14:35:00
10:52 AM,69.8,66.2,88,30.17,4.0,SE,3.5,-,0.29,Rain,Rain,140,2013-07-04 14:52:00
10:54 AM,69.1,66.9,93,30.15,4.0,ESE,3.5,-,0.30,Rain,Rain,120,2013-07-04 14:54:00
11:11 AM,70.0,68.0,93,30.17,6.0,SE,4.6,-,0.01,Rain,Rain,140,2013-07-04 15:11:00
11:40 AM,70.0,68.0,93,30.17,4.0,SSE,5.8,-,0.05,Rain,Light Rain,160,2013-07-04 15:40:00
11:54 AM,70.0,68.0,93,30.15,5.0,SE,4.6,-,0.06,Rain,Light Rain,140,2013-07-04 15:54:00
12:03 PM,71.1,68.0,90,30.17,6.0,SE,4.6,-,0.01,Rain,Light Rain,140,2013-07-04 16:03:00
12:32 PM,71.1,68.0,90,30.17,7.0,SE,8.1,-,0.05,Rain,Light Rain,130,2013-07-04 16:32:00
12:47 PM,71.1,68.0,90,30.16,7.0,SE,10.4,-,0.06,Rain,Light Rain,130,2013-07-04 16:47:00
12:54 PM,71.1,68.0,90,30.14,4.0,SE,8.1,-,0.08,Rain,Rain,130,2013-07-04 16:54:00
1:54 PM,71.1,68.0,90,30.15,2.5,SSE,11.5,-,0.11,Rain,Rain,160,2013-07-04 17:54:00
2:12 PM,70.0,68.0,93,30.16,2.5,SSE,11.5,-,0.08,Rain,Heavy Rain,160,2013-07-04 18:12:00
2:31 PM,70.0,68.0,93,30.16,3.0,South,8.1,-,0.12,Rain,Light Rain,170,2013-07-04 18:31:00
2:41 PM,70.0,68.0,93,30.15,9.0,SSE,6.9,-,0.12,Rain,Light Rain,160,2013-07-04 18:41:00
2:54 PM,70.0,68.0,93,30.14,10.0,South,6.9,-,0.13,Rain,Light Rain,170,2013-07-04 18:54:00
3:45 PM,70.0,68.0,93,30.15,1.8,SW,6.9,-,0.13,Rain,Heavy Rain,220,2013-07-04 19:45:00
3:54 PM,70.0,68.0,93,30.14,2.5,SW,6.9,-,0.17,Rain,Rain,230,2013-07-04 19:54:00
4:01 PM,69.1,68.0,96,30.16,1.0,SW,3.5,-,0.05,Rain,Heavy Rain,230,2013-07-04 20:01:00
4:10 PM,70.0,68.0,93,30.14,2.0,SSE,6.9,-,0.10,Rain,Rain,150,2013-07-04 20:10:00
4:54 PM,71.1,69.1,93,30.11,5.0,SW,5.8,-,0.12,Rain,Light Rain,220,2013-07-04 20:54:00
5:54 PM,69.1,66.0,90,30.11,2.5,ESE,6.9,-,0.22,Rain,Rain,110,2013-07-04 21:54:00
6:01 PM,68.0,66.0,93,30.14,5.0,SSE,8.1,-,0.01,Rain,Rain,150,2013-07-04 22:01:00
6:54 PM,68.0,64.9,90,30.09,10.0,ESE,4.6,-,0.08,Rain,Light Rain,110,2013-07-04 22:54:00
7:54 PM,66.9,66.0,97,30.10,2.0,SSW,3.5,-,0.09,Rain,Heavy Rain,210,2013-07-04 23:54:00
8:05 PM,66.9,66.0,97,30.13,4.0,SSW,6.9,-,0.02,Rain,Rain,200,2013-07-05 00:05:00
8:34 PM,66.9,64.9,93,30.13,2.5,SSW,5.8,-,0.13,Rain,Rain,200,2013-07-05 00:34:00
8:54 PM,66.0,64.0,93,30.11,5.0,SE,5.8,-,0.19,Rain,Rain,140,2013-07-05 00:54:00
9:54 PM,66.0,64.0,93,30.09,10.0,ESE,5.8,-,0.09,Rain,Light Rain,120,2013-07-05 01:54:00
10:54 PM,66.0,64.0,93,30.09,7.0,ESE,6.9,-,0.01,Rain,Light Rain,120,2013-07-05 02:54:00
11:54 PM,66.9,64.0,90,30.11,10.0,South,5.8,-,0.01,Rain,Light Rain,190,2013-07-05 03:54:00